Regional Weather Roundup
Issued by NWS Midland/Odessa, TX

Skip options and go directly to product.
Home | Oldest Version | Next Version | Current Version | All | Text Only | Save Text | Print | Product List | Glossary On

Skip product version selection by date and time.   
611
ASUS44 KMAF 301101
RWRMAF
MIDLAND AREA WEATHER ROUNDUP
NATIONAL WEATHER SERVICE MIDLAND TX
600 AM CDT MON MAY 30 2016

...IN SOUTHWEST TEXAS AND SOUTHEAST NEW MEXICO...

CITY           SKY/WX    TMP DP  RH WIND       PRES   REMARKS
ALPINE         PTCLDY    64  53  67 E5        30.15R
ANDREWS        FAIR      56  56 100 SE3       30.05S
ARTESIA        CLOUDY    61  57  88 CALM      30.09F
BIG SPRING     CLEAR     57  55  90 NE3       30.06R
CARLSBAD       CLOUDY    61  55  81 CALM      30.07S
DRYDEN           N/A     73  70  90 NE7       29.99R
FORT STOCKTON  NOT AVBL
GUAD PASS      NOT AVBL
HOBBS          CLOUDY    55  55 100 N3        30.10S
MARFA          CLOUDY    57  55  93 NE10      30.12F
MIDLAND AIRPK  CLEAR     61  56  82 CALM      30.05R
MIDLAND INTL   CLEAR     60  55  83 E6        30.05R
ODESSA         CLEAR     60  54  80 SE8       30.05S
PECOS          PTCLDY    62  55  79 NW5       30.05R
PRESIDIO       FAIR      73  57  56 N9        29.99S
SEMINOLE       CLEAR     55  53  94 SE3       30.07S
SNYDER           N/A     56  56  99 CALM      30.03F
WINK           NOT AVBL
$$
...OTHER STATIONS IN TEXAS...

CITY           SKY/WX    TMP DP  RH WIND       PRES   REMARKS
ABILENE        CLOUDY    65  63  93 S13       30.00S
AMARILLO       MOCLDY    52  50  93 N5        30.14R
AUSTIN         CLOUDY    72  67  84 N17       30.06R
BROWNSVILLE    PTCLDY    77  75  93 E3        29.93R
CORPUS CHRISTI PTCLDY    77  74  90 E3        29.96R
DALLAS FTW     CLOUDY    71  60  68 S12G24    29.84F
DEL RIO        CLOUDY    77  72  84 E10       29.94R
EL PASO        PTCLDY    71  41  33 S7        30.02S
HOUSTON INT    CLOUDY    69  69 100 CALM      30.02S
LUBBOCK        PTCLDY    54  52  93 NW5       30.07R
SAN ANGELO     CLOUDY    64  63  96 E8        30.03R
SAN ANTONIO    CLOUDY    75  72  90 E6        30.04R
WACO           RAIN      69  59  70 S28G35    29.97F
WICHITA FALLS  NOT AVBL
$$
...OTHER LOCATIONS IN NEW MEXICO...

CITY           SKY/WX    TMP DP  RH WIND       PRES   REMARKS
ALAMAGORDO     CLEAR     66  36  32 S10       30.05S
ALBUQUERQUE    PTCLDY    58  41  53 N8        30.11R
CANNON AFB     CLOUDY    53  53 100 N3        30.14S
CLOVIS         CLOUDY    52  48  87 N7        30.14F
HOLLOMAN AFB   CLEAR     71  37  28 SE10      30.02S
ROSWELL        CLOUDY    63  52  67 SW8       30.09S
RUIDOSO          N/A     46  46 100 W3        30.23S
SANTA FE       CLOUDY    51  43  74 S6        30.17S
TRUTH OR CONSE CLEAR     63  22  20 W8        30.06S
TUCUMCARI      CLOUDY    52  50  93 S3        30.13S
$$

USA.gov is the U.S. government's official web portal to all federal, state and local government web resources and services.